Time,TemperatureF,DewpointF,PressureIn,WindDirection,WindDirectionDegrees,WindSpeedMPH,WindSpeedGustMPH,Humidity,HourlyPrecipIn,Conditions,Clouds,dailyrainin,SoftwareType,DateUTC
2013-09-04 00:03:00,60.6,57.0,29.83,North,349,0.0,2.0,88,0.01,,,0.10,weatherlink.com 1.10,2013-09-04 04:03:00,
2013-09-04 00:18:00,59.6,57.0,29.83,ESE,110,1.0,3.0,90,0.01,,,0.10,weatherlink.com 1.10,2013-09-04 04:18:00,
2013-09-04 00:33:00,59.2,57.0,29.83,ENE,76,1.0,3.0,91,0.01,,,0.10,weatherlink.com 1.10,2013-09-04 04:33:00,
2013-09-04 00:48:00,58.8,57.0,29.83,ESE,103,3.0,5.0,92,0.01,,,0.10,weatherlink.com 1.10,2013-09-04 04:48:00,
2013-09-04 01:03:00,58.3,56.0,29.83,ESE,103,1.0,3.0,93,0.00,,,0.10,weatherlink.com 1.10,2013-09-04 05:03:00,
2013-09-04 01:18:00,58.2,57.0,29.83,ESE,103,0.0,2.0,94,0.00,,,0.10,weatherlink.com 1.10,2013-09-04 05:18:00,
2013-09-04 01:33:00,58.2,57.0,29.83,ESE,103,1.0,2.0,94,0.00,,,0.10,weatherlink.com 1.10,2013-09-04 05:33:00,
2013-09-04 01:48:00,58.0,56.0,29.84,ESE,103,2.0,3.0,94,0.00,,,0.10,weatherlink.com 1.10,2013-09-04 05:48:00,
2013-09-04 02:03:00,57.7,56.0,29.84,ESE,103,3.0,5.0,94,0.00,,,0.10,weatherlink.com 1.10,2013-09-04 06:03:00,
2013-09-04 02:18:00,57.5,56.0,29.84,ESE,103,0.0,2.0,94,0.00,,,0.10,weatherlink.com 1.10,2013-09-04 06:18:00,
2013-09-04 02:33:00,57.1,55.0,29.84,South,180,0.0,4.0,94,0.00,,,0.10,weatherlink.com 1.10,2013-09-04 06:33:00,
2013-09-04 02:48:00,56.7,55.0,29.85,South,180,0.0,3.0,94,0.00,,,0.10,weatherlink.com 1.10,2013-09-04 06:48:00,
2013-09-04 03:03:00,56.6,55.0,29.85,South,180,0.0,0.0,95,0.00,,,0.10,weatherlink.com 1.10,2013-09-04 07:03:00,
2013-09-04 03:18:00,56.3,55.0,29.85,WSW,240,0.0,3.0,95,0.00,,,0.10,weatherlink.com 1.10,2013-09-04 07:18:00,
2013-09-04 03:33:00,56.0,55.0,29.85,South,191,0.0,2.0,95,0.00,,,0.10,weatherlink.com 1.10,2013-09-04 07:33:00,
2013-09-04 03:48:00,55.9,55.0,29.85,South,187,0.0,4.0,95,0.00,,,0.10,weatherlink.com 1.10,2013-09-04 07:48:00,
2013-09-04 04:03:00,55.8,55.0,29.85,South,187,1.0,3.0,96,0.00,,,0.10,weatherlink.com 1.10,2013-09-04 08:03:00,
2013-09-04 04:18:00,55.8,54.0,29.86,South,187,0.0,1.0,95,0.00,,,0.00,weatherlink.com 1.10,2013-09-04 08:18:00,
2013-09-04 04:33:00,55.8,55.0,29.86,South,187,1.0,2.0,96,0.00,,,0.00,weatherlink.com 1.10,2013-09-04 08:33:00,
2013-09-04 04:48:00,55.6,55.0,29.87,South,187,0.0,2.0,96,0.00,,,0.00,weatherlink.com 1.10,2013-09-04 08:48:00,
2013-09-04 05:03:00,55.5,54.0,29.88,South,187,2.0,4.0,96,0.00,,,0.00,weatherlink.com 1.10,2013-09-04 09:03:00,
2013-09-04 05:18:00,55.3,54.0,29.88,South,187,1.0,4.0,96,0.00,,,0.00,weatherlink.com 1.10,2013-09-04 09:18:00,
2013-09-04 05:33:00,55.3,54.0,29.88,South,187,1.0,3.0,96,0.00,,,0.00,weatherlink.com 1.10,2013-09-04 09:33:00,
2013-09-04 05:48:00,55.3,54.0,29.89,South,187,2.0,3.0,96,0.00,,,0.00,weatherlink.com 1.10,2013-09-04 09:48:00,
2013-09-04 06:03:00,55.3,54.0,29.89,SSW,208,3.0,4.0,96,0.00,,,0.00,weatherlink.com 1.10,2013-09-04 10:03:00,
2013-09-04 06:18:00,55.1,54.0,29.90,SSW,209,1.0,3.0,96,0.00,,,0.00,weatherlink.com 1.10,2013-09-04 10:18:00,
2013-09-04 06:33:00,55.1,54.0,29.90,SSW,209,2.0,3.0,96,0.00,,,0.00,weatherlink.com 1.10,2013-09-04 10:33:00,
2013-09-04 06:48:00,55.1,54.0,29.90,SSW,209,2.0,3.0,97,0.00,,,0.00,weatherlink.com 1.10,2013-09-04 10:48:00,
2013-09-04 07:03:00,55.4,55.0,29.91,SSW,209,2.0,3.0,97,0.00,,,0.00,weatherlink.com 1.10,2013-09-04 11:03:00,
2013-09-04 07:18:00,55.9,55.0,29.91,SSW,205,2.0,4.0,97,0.00,,,0.00,weatherlink.com 1.10,2013-09-04 11:18:00,
2013-09-04 07:34:00,56.7,56.0,29.92,SSW,205,0.0,4.0,97,0.00,,,0.00,weatherlink.com 1.10,2013-09-04 11:34:00,
2013-09-04 07:49:00,57.2,56.0,29.92,SSW,205,2.0,4.0,97,0.00,,,0.00,weatherlink.com 1.10,2013-09-04 11:49:00,
2013-09-04 08:04:00,58.4,58.0,29.93,SW,218,0.0,5.0,98,0.00,,,0.00,weatherlink.com 1.10,2013-09-04 12:04:00,
2013-09-04 08:19:00,60.1,59.0,29.93,SW,218,0.0,1.0,96,0.00,,,0.00,weatherlink.com 1.10,2013-09-04 12:19:00,
2013-09-04 08:34:00,61.6,59.0,29.93,WNW,294,1.0,4.0,90,0.00,,,0.00,weatherlink.com 1.10,2013-09-04 12:34:00,
2013-09-04 08:49:00,62.2,59.0,29.94,West,259,3.0,6.0,89,0.00,,,0.00,weatherlink.com 1.10,2013-09-04 12:49:00,
2013-09-04 09:04:00,62.9,59.0,29.93,WSW,254,4.0,6.0,87,0.00,,,0.00,weatherlink.com 1.10,2013-09-04 13:04:00,
2013-09-04 09:19:00,63.6,60.0,29.94,West,281,4.0,6.0,87,0.00,,,0.00,weatherlink.com 1.10,2013-09-04 13:19:00,
2013-09-04 09:34:00,64.3,60.0,29.94,WNW,284,5.0,5.0,85,0.00,,,0.00,weatherlink.com 1.10,2013-09-04 13:34:00,
2013-09-04 09:49:00,65.3,60.0,29.94,WNW,298,2.0,5.0,83,0.00,,,0.00,weatherlink.com 1.10,2013-09-04 13:49:00,
2013-09-04 10:04:00,66.1,60.0,29.93,West,269,3.0,4.0,81,0.00,,,0.00,weatherlink.com 1.10,2013-09-04 14:04:00,
2013-09-04 10:19:00,67.6,61.0,29.93,NE,36,2.0,7.0,78,0.00,,,0.00,weatherlink.com 1.10,2013-09-04 14:19:00,
2013-09-04 10:34:00,67.9,59.0,29.93,WNW,283,7.0,8.0,73,0.00,,,0.00,weatherlink.com 1.10,2013-09-04 14:34:00,
2013-09-04 10:49:00,68.8,58.0,29.93,North,355,0.0,7.0,69,0.00,,,0.00,weatherlink.com 1.10,2013-09-04 14:49:00,
2013-09-04 11:04:00,69.4,59.0,29.93,NNW,335,2.0,10.0,69,0.00,,,0.00,weatherlink.com 1.10,2013-09-04 15:04:00,
2013-09-04 11:20:00,70.3,59.0,29.93,North,5,5.0,8.0,68,0.00,,,0.00,weatherlink.com 1.10,2013-09-04 15:20:00,
2013-09-04 11:35:00,71.1,60.0,29.92,NNE,30,2.0,8.0,69,0.00,,,0.00,weatherlink.com 1.10,2013-09-04 15:35:00,
2013-09-04 11:50:00,71.0,58.0,29.91,West,277,4.0,10.0,63,0.00,,,0.00,weatherlink.com 1.10,2013-09-04 15:50:00,
2013-09-04 12:05:00,72.0,59.0,29.91,NW,316,6.0,6.0,64,0.00,,,0.00,weatherlink.com 1.10,2013-09-04 16:05:00,
2013-09-04 12:20:00,72.1,58.0,29.91,NW,319,4.0,8.0,61,0.00,,,0.00,weatherlink.com 1.10,2013-09-04 16:20:00,
2013-09-04 12:35:00,72.8,60.0,29.91,WNW,294,4.0,6.0,64,0.00,,,0.00,weatherlink.com 1.10,2013-09-04 16:35:00,
2013-09-04 12:50:00,73.4,58.0,29.91,NNW,332,3.0,7.0,59,0.00,,,0.00,weatherlink.com 1.10,2013-09-04 16:50:00,
2013-09-04 13:05:00,73.6,58.0,29.90,NNW,329,1.0,9.0,59,0.00,,,0.00,weatherlink.com 1.10,2013-09-04 17:05:00,
2013-09-04 13:20:00,74.6,58.0,29.91,NNW,346,2.0,8.0,57,0.00,,,0.00,weatherlink.com 1.10,2013-09-04 17:20:00,
2013-09-04 13:35:00,74.7,57.0,29.91,West,260,3.0,7.0,54,0.00,,,0.00,weatherlink.com 1.10,2013-09-04 17:35:00,
2013-09-04 13:50:00,75.8,59.0,29.90,SW,236,4.0,7.0,57,0.00,,,0.00,weatherlink.com 1.10,2013-09-04 17:50:00,
2013-09-04 14:05:00,75.9,59.0,29.90,West,263,3.0,8.0,56,0.00,,,0.00,weatherlink.com 1.10,2013-09-04 18:05:00,
2013-09-04 14:20:00,76.1,58.0,29.89,West,261,1.0,10.0,53,0.00,,,0.00,weatherlink.com 1.10,2013-09-04 18:20:00,
2013-09-04 14:35:00,77.2,59.0,29.89,WSW,254,8.0,9.0,54,0.00,,,0.00,weatherlink.com 1.10,2013-09-04 18:35:00,
2013-09-04 14:50:00,77.4,59.0,29.88,WNW,284,2.0,10.0,53,0.00,,,0.00,weatherlink.com 1.10,2013-09-04 18:50:00,
2013-09-04 15:05:00,78.4,61.0,29.88,SW,235,8.0,8.0,55,0.00,,,0.00,weatherlink.com 1.10,2013-09-04 19:05:00,
2013-09-04 15:20:00,78.9,61.0,29.88,WSW,247,2.0,7.0,55,0.00,,,0.00,weatherlink.com 1.10,2013-09-04 19:20:00,
2013-09-04 15:35:00,79.2,61.0,29.87,WSW,246,1.0,9.0,53,0.00,,,0.00,weatherlink.com 1.10,2013-09-04 19:35:00,
2013-09-04 15:50:00,79.1,62.0,29.87,WSW,248,6.0,9.0,56,0.00,,,0.00,weatherlink.com 1.10,2013-09-04 19:50:00,
2013-09-04 16:05:00,79.4,61.0,29.86,WSW,242,8.0,10.0,53,0.00,,,0.00,weatherlink.com 1.10,2013-09-04 20:05:00,
2013-09-04 16:20:00,79.1,60.0,29.86,West,261,3.0,10.0,53,0.00,,,0.00,weatherlink.com 1.10,2013-09-04 20:20:00,
2013-09-04 16:35:00,79.1,60.0,29.86,WNW,283,3.0,9.0,52,0.00,,,0.00,weatherlink.com 1.10,2013-09-04 20:35:00,
2013-09-04 16:50:00,79.1,60.0,29.86,WSW,252,3.0,8.0,53,0.00,,,0.00,weatherlink.com 1.10,2013-09-04 20:50:00,
2013-09-04 17:05:00,78.7,59.0,29.86,West,279,6.0,11.0,51,0.00,,,0.00,weatherlink.com 1.10,2013-09-04 21:05:00,
2013-09-04 17:20:00,78.1,59.0,29.86,West,277,3.0,12.0,52,0.00,,,0.00,weatherlink.com 1.10,2013-09-04 21:20:00,
2013-09-04 17:35:00,77.9,59.0,29.87,West,269,4.0,8.0,52,0.00,,,0.00,weatherlink.com 1.10,2013-09-04 21:35:00,
2013-09-04 17:50:00,77.2,58.0,29.86,West,261,4.0,14.0,52,0.00,,,0.00,weatherlink.com 1.10,2013-09-04 21:50:00,
2013-09-04 18:05:00,76.7,58.0,29.86,West,272,5.0,9.0,53,0.00,,,0.00,weatherlink.com 1.10,2013-09-04 22:05:00,
2013-09-04 18:20:00,76.1,58.0,29.86,West,267,4.0,13.0,54,0.00,,,0.00,weatherlink.com 1.10,2013-09-04 22:20:00,
2013-09-04 18:35:00,75.7,58.0,29.86,WSW,255,3.0,7.0,55,0.00,,,0.00,weatherlink.com 1.10,2013-09-04 22:35:00,
2013-09-04 18:50:00,75.1,58.0,29.86,WNW,284,3.0,7.0,56,0.00,,,0.00,weatherlink.com 1.10,2013-09-04 22:50:00,
2013-09-04 19:05:00,74.3,58.0,29.86,West,267,3.0,6.0,57,0.00,,,0.00,weatherlink.com 1.10,2013-09-04 23:05:00,
2013-09-04 19:35:00,72.3,58.0,29.87,WSW,257,6.0,8.0,60,0.00,,,0.00,weatherlink.com 1.10,2013-09-04 23:35:00,
2013-09-04 19:50:00,71.6,58.0,29.88,West,259,4.0,6.0,62,0.00,,,0.00,weatherlink.com 1.10,2013-09-04 23:50:00,
2013-09-04 20:20:00,70.6,58.0,29.89,WSW,241,2.0,6.0,64,0.00,,,0.00,weatherlink.com 1.10,2013-09-05 00:20:00,
2013-09-04 20:35:00,70.3,58.0,29.89,WSW,240,2.0,5.0,65,0.00,,,0.00,weatherlink.com 1.10,2013-09-05 00:35:00,
2013-09-04 20:51:00,69.7,58.0,29.89,WSW,253,3.0,4.0,67,0.00,,,0.00,weatherlink.com 1.10,2013-09-05 00:51:00,
2013-09-04 21:06:00,69.6,59.0,29.90,NW,304,1.0,4.0,68,0.00,,,0.00,weatherlink.com 1.10,2013-09-05 01:06:00,
2013-09-04 21:21:00,69.5,58.0,29.90,WNW,300,3.0,4.0,68,0.00,,,0.00,weatherlink.com 1.10,2013-09-05 01:21:00,
2013-09-04 21:36:00,69.1,59.0,29.90,WNW,300,1.0,2.0,70,0.00,,,0.00,weatherlink.com 1.10,2013-09-05 01:36:00,
2013-09-04 21:51:00,67.3,58.0,29.90,WNW,300,0.0,2.0,73,0.00,,,0.00,weatherlink.com 1.10,2013-09-05 01:51:00,
2013-09-04 22:06:00,66.5,58.0,29.90,WNW,300,1.0,2.0,74,0.00,,,0.00,weatherlink.com 1.10,2013-09-05 02:06:00,
2013-09-04 22:21:00,65.7,58.0,29.90,WNW,300,2.0,3.0,76,0.00,,,0.00,weatherlink.com 1.10,2013-09-05 02:21:00,
2013-09-04 22:36:00,65.1,58.0,29.90,WNW,300,0.0,3.0,79,0.00,,,0.00,weatherlink.com 1.10,2013-09-05 02:36:00,
2013-09-04 22:51:00,64.5,58.0,29.91,SSW,196,3.0,7.0,80,0.00,,,0.00,weatherlink.com 1.10,2013-09-05 02:51:00,
2013-09-04 23:06:00,63.8,58.0,29.90,SSW,209,5.0,5.0,82,0.00,,,0.00,weatherlink.com 1.10,2013-09-05 03:06:00,
2013-09-04 23:21:00,63.4,58.0,29.89,SSW,207,4.0,5.0,83,0.00,,,0.00,weatherlink.com 1.10,2013-09-05 03:21:00,
2013-09-04 23:36:00,63.1,58.0,29.89,SSW,211,4.0,6.0,84,0.00,,,0.00,weatherlink.com 1.10,2013-09-05 03:36:00,
2013-09-04 23:51:00,62.9,58.0,29.89,SSW,208,5.0,6.0,84,0.00,,,0.00,weatherlink.com 1.10,2013-09-05 03:51:00,